This demonstration page uses our WeatherBlox Daily Observations layout. Learn more.

Hourly Observations for December 18, 2015

Temp ( °F °C ) Dew Point ( °F °C ) Humidity (%) Winds ( mph kmh ) Pressure ( in mb ) Visibility ( mi km ) Precip ( " mm )
12:15 am 00:15 Clear 17 -8.6 11 -11.5 80 80 WSW 14 22 30.33 1027 10 16.0934 0 0
12:35 am 00:35 Clear 17 -8.6 11 -11.6 79 79 W 12 19 30.33 1027 10 16.0934 0 0
12:55 am 00:55 Clear 16 -8.9 10 -12 78 78 W 14 22 30.33 1027 10 16.0934 0 0
1:15 am 01:15 Clear 15 -9.2 10 -12.3 78 78 W 12 19 30.3 1026 10 16.0934 0 0
1:35 am 01:35 Clear 16 -8.7 10 -12.3 75 75 W 13 20 30.3 1026 10 16.0934 0 0
1:55 am 01:55 Clear 16 -8.8 9 -12.6 74 74 W 14 22 30.3 1026 10 16.0934 0 0
2:15 am 02:15 Clear 15 -9.4 9 -12.9 76 76 WSW 10 17 30.3 1026 10 16.0934 0 0
2:35 am 02:35 Clear 15 -9.5 9 -13 76 76 W 10 17 30.3 1026 10 16.0934 0 0
2:55 am 02:55 Clear 15 -9.7 8 -13.2 76 76 W 12 19 30.3 1026 10 16.0934 0 0
3:15 am 03:15 Clear 14 -9.8 8 -13.5 75 75 W 13 20 30.3 1026 10 16.0934 0 0
3:35 am 03:35 Clear 14 -10 8 -13.5 76 76 W 12 19 30.3 1026 10 16.0934 0 0
3:55 am 03:55 Clear 14 -9.9 8 -13.5 75 75 W 12 19 30.27 1025 10 16.0934 0 0
4:15 am 04:15 Clear 14 -9.8 8 -13.6 74 74 W 12 19 30.27 1025 10 16.0934 0 0
4:35 am 04:35 Clear 14 -9.8 7 -13.8 73 73 WSW 12 19 30.27 1025 10 16.0934 0 0
4:55 am 04:55 Clear 14 -10 7 -14 73 73 W 13 20 30.27 1025 10 16.0934 0 0
5:15 am 05:15 Clear 14 -10 7 -14 73 73 W 12 19 30.27 1025 10 16.0934 0 0
5:35 am 05:35 Clear 13 -10.3 7 -14.1 74 74 W 12 19 30.27 1025 10 16.0934 0 0
5:55 am 05:55 Clear 13 -10.5 6 -14.2 75 75 W 12 19 30.27 1025 10 16.0934 0 0
6:15 am 06:15 Clear 14 -10.2 7 -14 74 74 W 13 20 30.27 1025 10 16.0934 0 0
6:35 am 06:35 Clear 14 -10.1 6 -14.2 72 72 W 10 17 30.24 1024 10 16.0934 0 0
6:55 am 06:55 Clear 15 -9.6 6 -14.2 69 69 W 10 17 30.24 1024 10 16.0934 0 0
7:15 am 07:15 Clear 15 -9.7 6 -14.4 69 69 W 12 19 30.27 1025 10 16.0934 0 0
7:35 am 07:35 Clear 14 -10 6 -14.5 70 70 W 10 17 30.27 1025 10 16.0934 0 0
7:55 am 07:55 Clear 13 -10.5 6 -14.5 73 73 W 9 15 30.27 1025 10 16.0934 0 0
8:15 am 08:15 Sunny 13 -10.5 6 -14.5 73 73 W 10 17 30.27 1025 10 16.0934 0 0
8:35 am 08:35 Sunny 15 -9.5 7 -14 70 70 W 13 20 30.27 1025 10 16.0934 0 0
8:55 am 08:55 Sunny 17 -8.6 8 -13.6 67 67 W 12 19 30.27 1025 10 16.0934 0 0
9:15 am 09:15 Sunny 19 -7 9 -12.9 63 63 W 13 20 30.24 1024 10 16.0934 0 0
9:35 am 09:35 Sunny 21 -6 10 -12.4 61 61 W 12 19 30.24 1024 10 16.0934 0 0
9:55 am 09:55 Sunny 22 -5.5 11 -11.7 62 62 W 12 19 30.21 1023 10 16.0934 0 0
10:15 am 10:15 Sunny 24 -4.4 12 -10.9 61 61 W 12 19 30.21 1023 10 16.0934 0 0
10:35 am 10:35 Sunny 26 -3.4 14 -10.1 60 60 W 13 20 30.24 1024 10 16.0934 0 0
10:55 am 10:55 Sunny 27 -2.8 14 -10 58 58 W 10 17 30.24 1024 10 16.0934 0 0
11:15 am 11:15 Sunny 28 -2.5 14 -10.1 56 56 WNW 9 15 30.21 1023 10 16.0934 0 0
11:35 am 11:35 Sunny 28 -2.3 14 -10.1 56 56 WNW 9 15 30.21 1023 10 16.0934 0 0
11:55 am 11:55 Sunny 28 -2.5 15 -9.4 59 59 W 9 15 30.21 1023 10 16.0934 0 0
12:15 pm 12:15 Sunny 27 -2.6 15 -9.4 60 60 WNW 7 11 30.24 1024 10 16.0934 0 0
12:35 pm 12:35 Sunny 28 -2 16 -9 59 59 WNW 8 13 30.21 1023 10 16.0934 0 0
12:55 pm 12:55 Sunny 30 -1.2 16 -8.7 57 57 NW 7 11 30.18 1022 10 16.0934 0 0
1:15 pm 13:15 Sunny 31 -0.5 16 -8.7 54 54 WNW 6 9 30.18 1022 10 16.0934 0 0
1:35 pm 13:35 Sunny 32 -0.1 16 -9.1 51 51 NW 6 9 30.18 1022 10 16.0934 0 0
1:55 pm 13:55 Sunny 32 0 16 -8.8 52 52 WNW 6 9 30.18 1022 10 16.0934 0 0
2:15 pm 14:15 Sunny 32 0 16 -9 51 51 NNW 6 9 30.18 1022 10 16.0934 0 0
2:35 pm 14:35 Sunny 32 0.1 15 -9.5 49 49 NNW 7 11 30.18 1022 10 16.0934 0 0
2:55 pm 14:55 Sunny 32 0 15 -9.3 50 50 NNW 6 9 30.21 1023 10 16.0934 0 0
3:15 pm 15:15 Sunny 32 0 15 -9.4 50 50 NNW 3 6 30.21 1023 10 16.0934 0 0
3:35 pm 15:35 Sunny 32 0.1 15 -9.5 49 49 Calm 30.21 1023 10 16.0934 0 0
3:55 pm 15:55 Sunny 32 0 15 -9.2 50 50 NW 5 7 30.24 1024 10 16.0934 0 0
4:15 pm 16:15 Sunny 32 0 16 -9 51 51 NNW 3 6 30.24 1024 10 16.0934 0 0
4:35 pm 16:35 Sunny 31 -0.5 17 -8.6 55 55 N 3 6 30.24 1024 10 16.0934 0 0
4:55 pm 16:55 Sunny 30 -0.9 17 -8.4 57 57 Calm 30.24 1024 10 16.0934 0 0
5:15 pm 17:15 Clear 29 -1.6 18 -7.7 64 64 Calm 30.24 1024 10 16.0934 0 0
5:35 pm 17:35 Clear 28 -2 18 -7.8 65 65 Calm 30.24 1024 10 16.0934 0 0
5:55 pm 17:55 Clear 28 -2.5 18 -7.6 68 68 Calm 30.24 1024 10 16.0934 0 0
6:15 pm 18:15 Clear 25 -3.7 19 -7.5 75 75 Calm 30.27 1025 10 16.0934 0 0
6:35 pm 18:35 Clear 25 -3.7 18 -7.7 74 74 Calm 30.27 1025 10 16.0934 0 0
6:55 pm 18:55 Clear 25 -3.7 18 -7.7 74 74 E 3 6 30.27 1025 10 16.0934 0 0
7:15 pm 19:15 Clear 26 -3.5 19 -7.5 74 74 Calm 30.27 1025 10 16.0934 0 0
7:35 pm 19:35 Clear 24 -4.7 18 -7.9 79 79 Calm 30.27 1025 10 16.0934 0 0
7:55 pm 19:55 Clear 22 -5.5 17 -8.3 81 81 Calm 30.3 1026 10 16.0934 0 0
8:15 pm 20:15 Clear 22 -5.7 18 -7.8 85 85 Calm 30.33 1027 10 16.0934 0 0
8:35 pm 20:35 Clear 24 -4.7 19 -7.4 82 82 E 3 6 30.3 1026 10 16.0934 0 0
8:55 pm 20:55 Clear 23 -5.1 18 -7.7 82 82 Calm 30.3 1026 10 16.0934 0 0
9:15 pm 21:15 Clear 22 -5.4 17 -8.3 80 80 Calm 30.3 1026 10 16.0934 0 0
9:35 pm 21:35 Clear 21 -5.9 17 -8.4 83 83 Calm 30.33 1027 10 16.0934 0 0
9:55 pm 21:55 Clear 23 -4.8 19 -7.3 83 83 SE 3 6 30.3 1026 10 16.0934 0 0
10:15 pm 22:15 Clear 20 -6.4 17 -8.6 85 85 Calm 30.33 1027 10 16.0934 0 0
10:35 pm 22:35 Clear 23 -4.9 17 -8.5 76 76 SE 3 6 30.3 1026 10 16.0934 0 0
10:55 pm 22:55 Clear 22 -5.8 16 -9 78 78 Calm 30.33 1027 10 16.0934 0 0
11:15 pm 23:15 Clear 23 -5.2 16 -9 75 75 SSE 6 9 30.3 1026 10 16.0934 0 0
11:35 pm 23:35 Clear 23 -5 15 -9.2 73 73 SSE 6 9 30.3 1026 10 16.0934 0 0
11:55 pm 23:55 Clear 22 -5.4 14 -9.8 71 71 SSE 5 7 30.3 1026 10 16.0934 0 0

Powered by AerisWeather